BAW7W EGLL-KIAD

Flight info

Callsign BAW7W
Flight time N/A
Altitude 38000
Route CPT L9 BUCGO DCT FELCA DCT OFSOX DCT BANBA DCT TOBOR/M082F390 DCT 53N020W 53N030W 5230N04000W 50N050W DCT ELSIR/N0465F400 N402C ALLEX DCT KAYCC DCT KYLOH DCT BAF HYPER9
Aircraft B772/H-SDE2E3FGHIJ5LORVWXY/LB1D1

Departure

Time 2026-05-06 00:08
Airport London Heathrow Airport (EGLL)

Arrival

Time N/A
Airport Washington Dulles International Airport (KIAD)
Time Latitude Longitude Altitude Speed Heading
2026-05-05 23:48 51.47048 -0.48231 90 ft 0 kts 90°
2026-05-06 00:00 51.47048 -0.48232 90 ft 1 kts 90°
2026-05-06 00:01 51.47049 -0.48271 94 ft 4 kts 98°
2026-05-06 00:01 51.47055 -0.48313 91 ft 4 kts 113°
2026-05-06 00:01 51.47069 -0.48347 90 ft 4 kts 146°
2026-05-06 00:01 51.47083 -0.48357 90 ft 0 kts 179°
2026-05-06 00:04 51.47079 -0.48357 90 ft 5 kts 179°
2026-05-06 00:04 51.46977 -0.48355 94 ft 22 kts 179°
2026-05-06 00:05 51.46746 -0.48419 91 ft 15 kts 242°
2026-05-06 00:05 51.46658 -0.48523 95 ft 18 kts 250°
2026-05-06 00:05 51.46636 -0.48733 94 ft 15 kts 233°
2026-05-06 00:06 51.46538 -0.48783 94 ft 19 kts 166°
2026-05-06 00:06 51.46480 -0.48647 93 ft 0 kts 90°
2026-05-06 00:07 51.46480 -0.48646 91 ft 0 kts 90°
2026-05-06 00:07 51.46480 -0.48457 91 ft 47 kts 90°
2026-05-06 00:07 51.46486 -0.47565 93 ft 112 kts 88°
2026-05-06 00:07 51.46494 -0.46152 110 ft 161 kts 87°
2026-05-06 00:08 51.46486 -0.44436 655 ft 162 kts 88°
2026-05-06 00:08 51.46488 -0.42587 1286 ft 166 kts 86°
2026-05-06 00:08 51.46465 -0.41373 1839 ft 165 kts 95°
2026-05-06 00:08 51.46043 -0.39645 2332 ft 175 kts 118°
2026-05-06 00:09 51.45183 -0.38163 2678 ft 189 kts 139°
2026-05-06 00:09 51.43968 -0.37126 2954 ft 211 kts 160°
2026-05-06 00:09 51.41909 -0.37177 3254 ft 240 kts 199°
2026-05-06 00:09 51.40906 -0.38061 3504 ft 248 kts 219°
2026-05-06 00:10 51.39834 -0.40270 3848 ft 261 kts 249°
2026-05-06 00:10 51.39684 -0.44082 4513 ft 263 kts 285°
2026-05-06 00:10 51.39997 -0.46005 4882 ft 264 kts 288°
2026-05-06 00:10 51.40455 -0.48872 5550 ft 266 kts 285°
2026-05-06 00:11 51.40878 -0.51772 6230 ft 269 kts 283°
2026-05-06 00:11 51.41277 -0.54709 6892 ft 270 kts 283°
2026-05-06 00:11 51.41656 -0.57647 7586 ft 269 kts 283°
2026-05-06 00:11 51.42021 -0.60603 8199 ft 272 kts 283°
2026-05-06 00:12 51.42377 -0.63569 8739 ft 277 kts 282°
2026-05-06 00:12 51.42735 -0.66607 9366 ft 278 kts 282°
2026-05-06 00:12 51.43090 -0.69669 9974 ft 280 kts 283°
2026-05-06 00:12 51.43449 -0.72763 10311 ft 293 kts 282°
2026-05-06 00:13 51.43843 -0.76128 10461 ft 314 kts 283°
2026-05-06 00:13 51.44273 -0.79640 10807 ft 327 kts 283°
2026-05-06 00:13 51.44717 -0.83262 11412 ft 334 kts 282°
2026-05-06 00:13 51.45167 -0.86948 12146 ft 339 kts 282°
2026-05-06 00:14 51.45609 -0.90675 12966 ft 342 kts 281°
2026-05-06 00:14 51.46041 -0.94452 13879 ft 346 kts 281°
2026-05-06 00:14 51.46473 -0.98249 14764 ft 346 kts 281°
2026-05-06 00:14 51.46907 -1.02066 15569 ft 350 kts 281°
2026-05-06 00:15 51.47353 -1.05935 16321 ft 355 kts 281°
2026-05-06 00:15 51.47806 -1.09842 17108 ft 359 kts 280°
2026-05-06 00:15 51.48263 -1.13811 17785 ft 366 kts 280°
2026-05-06 00:15 51.48719 -1.17781 18550 ft 368 kts 280°
2026-05-06 00:16 51.49475 -1.21682 19067 ft 372 kts 297°
2026-05-06 00:16 51.51047 -1.24993 19611 ft 378 kts 315°
2026-05-06 00:16 51.53019 -1.27841 20236 ft 383 kts 316°
2026-05-06 00:16 51.54872 -1.30914 20832 ft 386 kts 306°
2026-05-06 00:17 51.56253 -1.34607 21496 ft 388 kts 294°